This demonstration page uses our WeatherBlox Daily Observations layout. Learn more.

Left ArrowRight Arrow

Hourly Observations for June 26, 2017

Temp ( °F °C ) Dew Point ( °F °C ) Humidity (%) Winds ( mph kmh ) Pressure ( in mb ) Visibility ( mi km ) Precip ( " mm )
12:51 am 00:51 Clear 75 23.9 59 15 58 58 SSE 12 19 29.94 1014 10 16 N/A
1:51 am 01:51 Clear 72 22.2 61 16.1 68 68 SSE 13 20 29.95 1014 10 16 N/A
2:51 am 02:51 Clear 72 22.2 60 15.6 66 66 SSE 12 19 29.94 1014 10 16 N/A
3:51 am 03:51 Clear 70 21.1 60 15.6 71 71 E 6 9 29.93 1014 10 16 N/A
4:51 am 04:51 Clear 69 20.6 60 15.6 73 73 E 7 11 29.94 1014 10 16 N/A
5:51 am 05:51 Sunny 69 20.6 61 16.1 76 76 S 8 13 29.95 1014 10 16 N/A
6:51 am 06:51 Sunny 72 22.2 62 16.7 71 71 SW 5 7 29.96 1015 10 16 N/A
7:51 am 07:51 Sunny 77 25 61 16.1 58 58 N N/A 29.96 1015 10 16 N/A
8:51 am 08:51 Sunny 82 27.8 59 15 46 46 VRB 3 6 29.97 1015 10 16 N/A
9:51 am 09:51 Sunny 85 29.4 57 13.9 39 39 SSE 7 11 29.94 1014 10 16 N/A
10:51 am 10:51 Sunny 90 32.2 55 12.8 31 31 S 8 13 29.93 1013 10 16 N/A
11:51 am 11:51 Sunny 93 33.9 54 12.2 27 27 S 10 17 29.90 1012 10 16 N/A
12:51 pm 12:51 Sunny 95 35 53 11.7 24 24 WSW 9 15 29.85 1011 10 16 N/A
1:51 pm 13:51 Sunny 97 36.1 50 10 20 20 N N/A 29.82 1010 10 16 N/A
2:51 pm 14:51 Sunny 101 38.3 49 9.4 17 17 SE 5 7 29.79 1009 10 16 N/A
3:22 pm 15:22 Sunny 100 38 46 8 16 16 NNE 25 41 29.65 1004 10 16 N/A
3:51 pm 15:51 Sunny 102 38.9 43 6.1 13 13 ENE 21 33 29.78 1008 10 16 N/A
4:40 pm 16:40 Sunny 100 38 41 5 13 13 VRB 7 11 29.65 1004 10 16 N/A
4:51 pm 16:51 Sunny 101 38.3 39 3.9 12 12 E 6 9 29.77 1008 10 16 N/A
5:51 pm 17:51 Sunny 99 37.2 39 3.9 12 12 VRB 6 9 29.76 1008 10 16 N/A
6:51 pm 18:51 Sunny 97 36.1 40 4.4 14 14 ESE 5 7 29.75 1008 10 16 N/A
7:51 pm 19:51 Clear 93 33.9 43 6.1 18 18 S 8 13 29.76 1008 10 16 N/A
8:51 pm 20:51 Clear 89 31.7 44 6.7 21 21 E 3 6 29.78 1008 10 16 N/A
9:51 pm 21:51 Clear 86 30 45 7.2 24 24 E 7 11 29.79 1009 10 16 N/A
10:51 pm 22:51 Clear 84 28.9 45 7.2 25 25 ESE 3 6 29.80 1009 10 16 N/A
11:51 pm 23:51 Clear with Light Rain 82 27.8 49 9.4 32 32 ESE 8 13 29.80 1009 10 16 N/A

Powered by AerisWeather